weather.gov     
National Weather Service

Regional Weather Roundup
NWS Homepage
This page is being discontinued on March 12, 2014.
The same data is available at this site. Please update your bookmarks.
Thank you, and we apologize for the inconvenience.
Please send an email to SR-SRH.Webmaster@noaa.gov with any concerns.


Current Version
Previous Version:    01  02  03  04  05  06  07  08  09  10  11  12  13  14  15  16  17  18  19  20  21  22  23  24  25  26  27  28  29  30  
   31  32  33  34  35  36  37  38  39  40  41  42  43  44  45  46  47  48  49  50  51  52  53  54  55  56  57  58  59  60  
[Printable]
279
ASCA44 KEWX 150920
RWRMX

LATIN AMERICA AND CARIBBEAN REGIONAL WEATHER ROUNDUP
NATIONAL WEATHER SERVICE AUSTIN/SAN ANTONIO TX
400 AM CDT MON SEP 15 2014

NOTE: "FAIR" INDICATED FEW OR NO CLOUDS BELOW 12,000 FEET WITH NO
SIGNIFICANT WEATHER AND/OR OBSTRUCTIONS TO VISIBILITY.

BAJA CALIFORNIA

CITY           SKY/WX    TMP DP  RH WIND       PRES   REMARKS
TIJUANA        CLEAR     75  66  73 CALM      29.80S

NORTHWESTERN MEXICO

CITY           SKY/WX    TMP DP  RH WIND       PRES   REMARKS

NORTHEASTERN MEXICO

CITY           SKY/WX    TMP DP  RH WIND       PRES   REMARKS
MONTERREY      CLOUDY    70  68  94 CALM      30.10F
REYNOSA        MOCLDY    72  68  88 NW3       30.06F
CD. VICTORIA   PTCLDY    72  72 100 NW2       30.08F

WESTERN MEXICO

CITY           SKY/WX    TMP DP  RH WIND       PRES   REMARKS
DEL BAJIO      PTCLDY    61  54  77 N7        30.30F
GUADALAJARA    MOCLDY    59  55  88 NW5       30.18F
MAZATLAN       CLOUDY    77  73  88 E9        29.84S
P. VALLARTA    CLOUDY    75  73  94 N3        29.86S
ZACATECAS      MOCLDY    55  48  76 N5        30.33F

CENTRAL MEXICO

CITY           SKY/WX    TMP DP  RH WIND       PRES   REMARKS
MEXICO CITY    MOCLDY    57  50  77 NW3       30.34F
QUERETARO      PTCLDY    55  52  88 E6        30.34F
S. LUIS POTOSI CLOUDY    59  54  82 SE9       30.31F
TOLUCA         DRIZZLE   54  46  76 CALM      30.38F

SOUTHERN MEXICO

CITY           SKY/WX    TMP DP  RH WIND       PRES   REMARKS
ACAPULCO       MOCLDY    79  75  89 W2        29.83F

YUCATAN PENINSULA

CITY           SKY/WX    TMP DP  RH WIND       PRES   REMARKS
CANCUN         CLOUDY    81  77  89 SE3       30.01S
CD. DEL CARMEN MOCLDY    81  75  83 CALM      29.94
COZUMEL        MOCLDY    73  73 100 CALM      30.01S
MERIDA         PTCLDY    75  70  83 E13       29.99F
TAPACHULA      MOCLDY    77  75  94 SE12      29.88F

CENTRAL AMERICA

CITY           SKY/WX    TMP DP  RH WIND       PRES   REMARKS

CARIBBEAN

CITY           SKY/WX    TMP DP  RH WIND       PRES   REMARKS
ARUBA          PTCLDY    82  75  78 E13       29.89R
KINGSTON       PTCLDY    82  72  69 NW6       29.94S
NASSAU         PTCLDY    79  75  89 CALM      30.12S
SAN JUAN       PTCLDY    79  77  94 CALM      29.99R
SANTO DOMINGO  PTCLDY    77  73  88 N5        29.97S
ST. MAARTEN    PTCLDY    81  73  78 VRB3      29.97S

$$





U.S. Dept. of Commerce
NOAA National Weather Service
1325 East West Highway
Silver Spring, MD 20910
E-mail: w-nws.webmaster@noaa.gov
Page last modified: May 16, 2007
NATIONAL WEATHER SERVICE: for Safety, for Work, for Fun - FOR LIFE